Вернуться в каталог

OPS 0100 DEB *

АктивенPO
NORAD 4843·DEBRIS·🇺🇸 United States

Запущен Apr 14, 1967 с Vandenberg Space Force Base

Loading…

Ближайшие Пролёты (ближайшие 24 часа)

TLE

СвежийSource: Space-Track

Эпоха: Sep 14, 2026, 04:17 UTC

1 04843U 67034E   26257.17865513  .00000120  00000-0  16802-3 0  9990
2 04843  90.3509 144.3676 0025994 232.6617 281.1182 13.52680653285674

Отслеживайте OPS 0100 DEB * в реальном времени с AllMySat

Download on the App Store